Location: Dilsberg
(49.3983°N, 8.8354°E)
Time: 01:57:57
(UTC+00:00)

Cosmos 158 Rocket - Pass Details

Date: 19 May 2025
Orbit: 695 x 787 km, 74.0° (Epoch: 23 June)

Event Time Altitude Azimuth Distance (km) Brightness Sun altitude
Rises 20:31:13 0° 202° (SSW) 3,229 7.0 -11.1°
Reaches altitude 10° 20:33:34 10° 202° (SSW) 2,317 6.2 -11.3°
Maximum altitude 20:38:52 89° 295° (WNW) 791 4.1 -11.8°
Drops below altitude 10° 20:44:16 10° 23° (NNE) 2,359 6.9 -12.4°
Sets 20:46:40 0° 24° (NNE) 3,292 7.7 -12.6°
